Location: Middlebury
(44.0153°N, 73.1678°W)
Time: 09:17:51
(UTC-04:00)

DIWATA 2B (PO-101) - Visible Passes

Search period start: 18 June 2024 00:00
Search period end: 28 June 2024 00:00
Orbit: 574 x 588 km, 98.1° (Epoch: 18 June)

Date Brightness Start Highest point End Pass type
(mag) Time Alt. Az. Time Alt. Az. Time Alt. Az.
18 Jun ? 04:24:49 10° SSE 04:28:54 85° WSW 04:33:02 10° NNW visible
19 Jun ? 02:58:17 10° ENE 02:59:32 11° ENE 03:00:47 10° NE visible
19 Jun ? 04:30:11 10° S 04:34:15 74° WSW 04:38:21 10° NNW visible
20 Jun ? 03:03:01 10° E 03:04:48 13° ENE 03:06:36 10° NE visible
21 Jun ? 03:07:54 10° E 03:10:04 14° ENE 03:12:15 10° NNE visible
22 Jun ? 03:12:51 10° E 03:15:21 16° ENE 03:17:51 10° NNE visible
23 Jun ? 03:17:52 10° ESE 03:20:37 18° ENE 03:23:23 10° NNE visible
24 Jun ? 03:22:55 10° ESE 03:25:54 20° ENE 03:28:53 10° NNE visible
25 Jun ? 03:28:00 10° ESE 03:31:10 22° ENE 03:34:22 10° NNE visible
26 Jun ? 03:33:06 10° ESE 03:36:27 25° ENE 03:39:48 10° NNE visible
27 Jun ? 03:38:14 10° SE 03:41:43 28° ENE 03:45:14 10° N visible
